User: anonymous   Login
Location: Al Mulaqqa?ah
(24.1833°N, 32.8833°E)
Time: 15:03:32
(UTC+00:00)
Language:

Cosmos 1777 Rocket - Orbit

View from above orbital plane
View from above orbital plane
View from above satellite
View from above satellite

Ground track
Ground track

The orbit data is extracted from the following two-line orbital elements,

1 16953U 86070B   21330.90534629 -.00000025  00000-0  68703-6 0  9990
2 16953  74.0089 164.3670 0012332 353.1923   6.9061 14.37450394845108
Epoch (UTC): 26 November 2021 21:43:41
Eccentricity: 0.0012332
inclination: 74.0089°
perigee height: 758 km
apogee height: 776 km
right ascension of ascending node: 164.3670°
argument of perigee: 353.1923°
revolutions per day: 14.37450394
mean anomaly at epoch: 6.9061°
orbit number at epoch: 84510

The dashed part of the orbit path shows where the satellite is in the earth's shadow,  

DLR